Time,TemperatureF,DewpointF,PressureIn,WindDirection,WindDirectionDegrees,WindSpeedMPH,WindSpeedGustMPH,Humidity,HourlyPrecipIn,Conditions,Clouds,dailyrainin,SoftwareType,DateUTC
2013-03-07 00:01:00,62.1,34.8,29.86,ESE,117,1.0,2.0,36,0.00,,,0.00,Wunderground v.1.15,2013-03-07 07:01:00,
2013-03-07 00:06:00,61.8,34.5,29.87,SE,131,2.0,3.0,36,0.00,,,0.00,Wunderground v.1.15,2013-03-07 07:06:00,
2013-03-07 00:11:00,61.6,34.4,29.86,ESE,110,3.0,3.0,36,0.00,,,0.00,Wunderground v.1.15,2013-03-07 07:11:00,
2013-03-07 00:16:00,61.5,34.3,29.86,ESE,113,3.0,4.0,36,0.00,,,0.00,Wunderground v.1.15,2013-03-07 07:16:00,
2013-03-07 00:21:00,61.5,34.3,29.86,SE,136,2.0,3.0,36,0.00,,,0.00,Wunderground v.1.15,2013-03-07 07:21:00,
2013-03-07 00:26:00,61.3,34.1,29.86,ESE,121,1.0,3.0,36,0.00,,,0.00,Wunderground v.1.15,2013-03-07 07:26:00,
2013-03-07 00:31:00,61.0,34.5,29.86,ESE,115,0.0,1.0,37,0.00,,,0.00,Wunderground v.1.15,2013-03-07 07:31:00,
2013-03-07 00:36:00,60.3,33.9,29.87,NW,324,1.0,3.0,37,0.00,,,0.00,Wunderground v.1.15,2013-03-07 07:36:00,
2013-03-07 00:41:00,57.2,36.6,29.87,NW,312,2.0,5.0,46,0.00,,,0.00,Wunderground v.1.15,2013-03-07 07:41:00,
2013-03-07 00:46:00,56.6,37.1,29.87,West,271,1.0,5.0,48,0.00,,,0.00,Wunderground v.1.15,2013-03-07 07:46:00,
2013-03-07 00:51:00,57.1,38.6,29.87,WNW,290,1.0,1.0,50,0.00,,,0.00,Wunderground v.1.15,2013-03-07 07:51:00,
2013-03-07 00:57:00,56.5,39.1,29.87,West,281,0.0,2.0,52,0.00,,,0.00,Wunderground v.1.15,2013-03-07 07:57:00,
2013-03-07 01:02:00,56.1,39.7,29.87,SW,225,0.0,0.0,54,0.00,,,0.00,Wunderground v.1.15,2013-03-07 08:02:00,
2013-03-07 01:07:00,55.9,40.4,29.87,SE,133,0.0,0.0,56,0.00,,,0.00,Wunderground v.1.15,2013-03-07 08:07:00,
2013-03-07 01:13:00,56.1,40.1,29.87,SE,132,0.0,0.0,55,0.00,,,0.00,Wunderground v.1.15,2013-03-07 08:13:00,
2013-03-07 01:18:00,55.7,39.8,29.87,SSE,156,0.0,0.0,55,0.00,,,0.00,Wunderground v.1.15,2013-03-07 08:18:00,
2013-03-07 01:23:00,55.4,40.0,29.87,ESE,120,1.0,1.0,56,0.00,,,0.00,Wunderground v.1.15,2013-03-07 08:23:00,
2013-03-07 01:28:00,55.3,39.9,29.87,ESE,115,0.0,2.0,56,0.00,,,0.00,Wunderground v.1.15,2013-03-07 08:28:00,
2013-03-07 01:34:00,55.1,39.2,29.87,ESE,114,1.0,1.0,55,0.00,,,0.00,Wunderground v.1.15,2013-03-07 08:34:00,
2013-03-07 01:39:00,54.9,39.5,29.87,ESE,117,0.0,1.0,56,0.00,,,0.00,Wunderground v.1.15,2013-03-07 08:39:00,
2013-03-07 01:45:00,54.9,39.5,29.87,ESE,120,0.0,1.0,56,0.00,,,0.00,Wunderground v.1.15,2013-03-07 08:45:00,
2013-03-07 01:50:00,55.0,39.6,29.87,ESE,119,0.0,0.0,56,0.00,,,0.00,Wunderground v.1.15,2013-03-07 08:50:00,
2013-03-07 01:56:00,55.1,39.7,29.87,ESE,118,0.0,1.0,56,0.00,,,0.00,Wunderground v.1.15,2013-03-07 08:56:00,
2013-03-07 02:01:00,55.4,39.5,29.87,East,96,0.0,0.0,55,0.00,,,0.00,Wunderground v.1.15,2013-03-07 09:01:00,
2013-03-07 02:06:00,55.8,38.9,29.87,ESE,107,0.0,0.0,53,0.00,,,0.00,Wunderground v.1.15,2013-03-07 09:06:00,
2013-03-07 02:11:00,56.0,39.1,29.87,East,84,0.0,1.0,53,0.00,,,0.00,Wunderground v.1.15,2013-03-07 09:11:00,
2013-03-07 02:16:00,56.3,38.4,29.87,ESE,110,0.0,1.0,51,0.00,,,0.00,Wunderground v.1.15,2013-03-07 09:16:00,
2013-03-07 02:21:00,56.1,38.2,29.87,ESE,122,1.0,1.0,51,0.00,,,0.00,Wunderground v.1.15,2013-03-07 09:21:00,
2013-03-07 02:27:00,56.1,37.7,29.87,ESE,123,1.0,2.0,50,0.00,,,0.00,Wunderground v.1.15,2013-03-07 09:27:00,
2013-03-07 02:32:00,55.9,37.5,29.86,SE,135,1.0,1.0,50,0.00,,,0.00,Wunderground v.1.15,2013-03-07 09:32:00,
2013-03-07 02:37:00,55.8,37.9,29.86,SE,145,0.0,1.0,51,0.00,,,0.00,Wunderground v.1.15,2013-03-07 09:37:00,
2013-03-07 02:43:00,56.2,38.3,29.86,SE,142,2.0,3.0,51,0.00,,,0.00,Wunderground v.1.15,2013-03-07 09:43:00,
2013-03-07 02:48:00,56.7,38.3,29.86,SSW,211,0.0,5.0,50,0.00,,,0.00,Wunderground v.1.15,2013-03-07 09:48:00,
2013-03-07 02:53:00,57.0,38.0,29.86,SSE,162,0.0,3.0,49,0.00,,,0.00,Wunderground v.1.15,2013-03-07 09:53:00,
2013-03-07 02:59:00,57.0,38.0,29.86,SW,223,1.0,3.0,49,0.00,,,0.00,Wunderground v.1.15,2013-03-07 09:59:00,
2013-03-07 03:04:00,56.8,38.3,29.86,SW,225,1.0,3.0,50,0.00,,,0.00,Wunderground v.1.15,2013-03-07 10:04:00,
2013-03-07 03:09:00,56.6,38.2,29.86,SSE,162,0.0,3.0,50,0.00,,,0.00,Wunderground v.1.15,2013-03-07 10:09:00,
2013-03-07 03:14:00,56.2,38.3,29.86,South,174,1.0,2.0,51,0.00,,,0.00,Wunderground v.1.15,2013-03-07 10:14:00,
2013-03-07 03:19:00,54.8,35.5,29.86,WNW,288,0.0,2.0,48,0.00,,,0.00,Wunderground v.1.15,2013-03-07 10:19:00,
2013-03-07 03:24:00,52.9,36.7,29.85,WNW,287,0.0,1.0,54,0.00,,,0.00,Wunderground v.1.15,2013-03-07 10:24:00,
2013-03-07 03:29:00,52.7,37.9,29.85,SW,236,0.0,1.0,57,0.00,,,0.00,Wunderground v.1.15,2013-03-07 10:29:00,
2013-03-07 03:34:00,52.8,37.5,29.85,SW,236,0.0,1.0,56,0.00,,,0.00,Wunderground v.1.15,2013-03-07 10:34:00,
2013-03-07 03:39:00,52.0,37.2,29.85,NNW,340,0.0,1.0,57,0.00,,,0.00,Wunderground v.1.15,2013-03-07 10:39:00,
2013-03-07 03:44:00,51.3,39.1,29.85,NNW,340,0.0,0.0,63,0.00,,,0.00,Wunderground v.1.15,2013-03-07 10:44:00,
2013-03-07 03:49:00,51.0,38.8,29.85,North,356,2.0,2.0,63,0.00,,,0.00,Wunderground v.1.15,2013-03-07 10:49:00,
2013-03-07 03:54:00,50.9,39.9,29.85,NNW,343,0.0,1.0,66,0.00,,,0.00,Wunderground v.1.15,2013-03-07 10:54:00,
2013-03-07 03:59:00,50.8,39.8,29.85,NNW,343,0.0,1.0,66,0.00,,,0.00,Wunderground v.1.15,2013-03-07 10:59:00,
2013-03-07 04:04:00,50.6,39.3,29.85,NNW,342,0.0,1.0,65,0.00,,,0.00,Wunderground v.1.15,2013-03-07 11:04:00,
2013-03-07 04:09:00,50.4,39.1,29.86,NNW,342,0.0,1.0,65,0.00,,,0.00,Wunderground v.1.15,2013-03-07 11:09:00,
2013-03-07 04:14:00,50.1,38.8,29.86,NNW,342,0.0,0.0,65,0.00,,,0.00,Wunderground v.1.15,2013-03-07 11:14:00,
2013-03-07 04:19:00,49.8,39.3,29.86,NNW,342,0.0,0.0,67,0.00,,,0.00,Wunderground v.1.15,2013-03-07 11:19:00,
2013-03-07 04:24:00,49.8,39.3,29.86,NNW,346,0.0,1.0,67,0.00,,,0.00,Wunderground v.1.15,2013-03-07 11:24:00,
2013-03-07 04:29:00,49.5,39.4,29.86,NNW,346,0.0,1.0,68,0.00,,,0.00,Wunderground v.1.15,2013-03-07 11:29:00,
2013-03-07 04:34:00,49.3,39.6,29.86,NNW,346,0.0,0.0,69,0.00,,,0.00,Wunderground v.1.15,2013-03-07 11:34:00,
2013-03-07 04:39:00,49.3,39.2,29.86,NNW,346,0.0,0.0,68,0.00,,,0.00,Wunderground v.1.15,2013-03-07 11:39:00,
2013-03-07 04:45:00,49.1,39.0,29.86,North,354,0.0,0.0,68,0.00,,,0.00,Wunderground v.1.15,2013-03-07 11:45:00,
2013-03-07 04:50:00,48.9,38.8,29.86,ESE,120,1.0,1.0,68,0.00,,,0.00,Wunderground v.1.15,2013-03-07 11:50:00,
2013-03-07 04:55:00,48.9,38.8,29.86,ESE,115,0.0,1.0,68,0.00,,,0.00,Wunderground v.1.15,2013-03-07 11:55:00,
2013-03-07 05:00:00,49.3,38.8,29.87,ESE,115,0.0,1.0,67,0.00,,,0.00,Wunderground v.1.15,2013-03-07 12:00:00,
2013-03-07 05:05:00,49.6,38.3,29.87,ESE,116,0.0,1.0,65,0.00,,,0.00,Wunderground v.1.15,2013-03-07 12:05:00,
2013-03-07 05:10:00,49.7,38.4,29.87,ESE,116,0.0,1.0,65,0.00,,,0.00,Wunderground v.1.15,2013-03-07 12:10:00,
2013-03-07 05:15:00,50.0,38.3,29.87,ESE,115,0.0,1.0,64,0.00,,,0.00,Wunderground v.1.15,2013-03-07 12:15:00,
2013-03-07 05:20:00,49.7,37.6,29.87,ESE,115,0.0,0.0,63,0.00,,,0.00,Wunderground v.1.15,2013-03-07 12:20:00,
2013-03-07 05:25:00,49.4,37.7,29.87,ESE,116,0.0,0.0,64,0.00,,,0.00,Wunderground v.1.15,2013-03-07 12:25:00,
2013-03-07 05:30:00,49.7,38.0,29.88,ESE,115,0.0,0.0,64,0.00,,,0.00,Wunderground v.1.15,2013-03-07 12:30:00,
2013-03-07 05:35:00,49.8,38.1,29.88,ESE,115,0.0,0.0,64,0.00,,,0.00,Wunderground v.1.15,2013-03-07 12:35:00,
2013-03-07 05:40:00,49.6,37.9,29.88,ESE,116,0.0,0.0,64,0.00,,,0.00,Wunderground v.1.15,2013-03-07 12:40:00,
2013-03-07 05:45:00,50.1,38.0,29.88,ESE,115,0.0,1.0,63,0.00,,,0.00,Wunderground v.1.15,2013-03-07 12:45:00,
2013-03-07 05:50:00,50.1,38.0,29.88,ESE,116,0.0,0.0,63,0.00,,,0.00,Wunderground v.1.15,2013-03-07 12:50:00,
2013-03-07 05:55:00,49.4,35.7,29.88,ESE,115,0.0,0.0,59,0.00,,,0.00,Wunderground v.1.15,2013-03-07 12:55:00,
2013-03-07 06:00:00,47.5,33.4,29.89,ESE,115,0.0,1.0,58,0.00,,,0.00,Wunderground v.1.15,2013-03-07 13:00:00,
2013-03-07 06:05:00,47.3,36.9,29.89,ESE,116,0.0,1.0,67,0.00,,,0.00,Wunderground v.1.15,2013-03-07 13:05:00,
2013-03-07 06:10:00,47.7,36.9,29.89,ESE,115,0.0,0.0,66,0.00,,,0.00,Wunderground v.1.15,2013-03-07 13:10:00,
2013-03-07 06:15:00,46.7,35.6,29.89,NE,36,0.0,1.0,65,0.00,,,0.00,Wunderground v.1.15,2013-03-07 13:15:00,
2013-03-07 06:20:00,46.5,36.1,29.89,NE,36,0.0,0.0,67,0.00,,,0.00,Wunderground v.1.15,2013-03-07 13:20:00,
2013-03-07 06:25:00,46.9,36.5,29.90,NE,36,0.0,0.0,67,0.00,,,0.00,Wunderground v.1.15,2013-03-07 13:25:00,
2013-03-07 06:30:00,46.8,36.4,29.89,NE,37,0.0,0.0,67,0.00,,,0.00,Wunderground v.1.15,2013-03-07 13:30:00,
2013-03-07 06:35:00,47.0,36.6,29.90,ESE,111,0.0,1.0,67,0.00,,,0.00,Wunderground v.1.15,2013-03-07 13:35:00,
2013-03-07 06:40:00,47.5,37.5,29.90,ESE,111,0.0,0.0,68,0.00,,,0.00,Wunderground v.1.15,2013-03-07 13:40:00,
2013-03-07 06:45:00,47.6,37.2,29.90,ESE,122,0.0,1.0,67,0.00,,,0.00,Wunderground v.1.15,2013-03-07 13:45:00,
2013-03-07 06:50:00,47.2,36.8,29.90,ESE,123,0.0,0.0,67,0.00,,,0.00,Wunderground v.1.15,2013-03-07 13:50:00,
2013-03-07 06:55:00,46.6,36.6,29.90,ESE,122,0.0,0.0,68,0.00,,,0.00,Wunderground v.1.15,2013-03-07 13:55:00,
2013-03-07 07:00:00,46.4,36.4,29.91,ESE,122,0.0,0.0,68,0.00,,,0.00,Wunderground v.1.15,2013-03-07 14:00:00,
2013-03-07 07:05:00,46.4,36.8,29.91,ESE,122,0.0,0.0,69,0.00,,,0.00,Wunderground v.1.15,2013-03-07 14:05:00,
2013-03-07 07:10:00,47.0,37.0,29.90,ESE,122,0.0,0.0,68,0.00,,,0.00,Wunderground v.1.15,2013-03-07 14:10:00,
2013-03-07 07:15:00,47.5,37.5,29.91,SE,128,0.0,1.0,68,0.00,,,0.00,Wunderground v.1.15,2013-03-07 14:15:00,
2013-03-07 07:20:00,48.1,37.7,29.91,ESE,120,0.0,1.0,67,0.00,,,0.00,Wunderground v.1.15,2013-03-07 14:20:00,
2013-03-07 07:25:00,49.1,38.2,29.91,ESE,121,0.0,1.0,66,0.00,,,0.00,Wunderground v.1.15,2013-03-07 14:25:00,
2013-03-07 07:30:00,49.3,36.0,29.91,ESE,115,0.0,0.0,60,0.00,,,0.00,Wunderground v.1.15,2013-03-07 14:30:00,
2013-03-07 07:35:00,49.0,37.7,29.91,ESE,115,0.0,0.0,65,0.00,,,0.00,Wunderground v.1.15,2013-03-07 14:35:00,
2013-03-07 07:40:00,48.7,36.7,29.92,ESE,114,0.0,0.0,63,0.00,,,0.00,Wunderground v.1.15,2013-03-07 14:40:00,
2013-03-07 07:45:00,48.4,37.2,29.92,ESE,114,0.0,0.0,65,0.00,,,0.00,Wunderground v.1.15,2013-03-07 14:45:00,
2013-03-07 07:50:00,49.2,37.5,29.92,East,100,0.0,0.0,64,0.00,,,0.00,Wunderground v.1.15,2013-03-07 14:50:00,
2013-03-07 07:55:00,50.0,37.9,29.92,East,101,0.0,1.0,63,0.00,,,0.00,Wunderground v.1.15,2013-03-07 14:55:00,
2013-03-07 08:00:00,50.5,38.0,29.92,NNE,12,0.0,1.0,62,0.00,,,0.00,Wunderground v.1.15,2013-03-07 15:00:00,
2013-03-07 08:05:00,50.5,37.5,29.92,NNE,13,0.0,1.0,61,0.00,,,0.00,Wunderground v.1.15,2013-03-07 15:05:00,
2013-03-07 08:10:00,51.6,39.0,29.93,NNE,13,0.0,0.0,62,0.00,,,0.00,Wunderground v.1.15,2013-03-07 15:10:00,
2013-03-07 08:15:00,53.2,39.7,29.93,North,11,0.0,0.0,60,0.00,,,0.00,Wunderground v.1.15,2013-03-07 15:15:00,
2013-03-07 08:20:00,54.1,38.7,29.93,NNE,12,0.0,0.0,56,0.00,,,0.00,Wunderground v.1.15,2013-03-07 15:20:00,
2013-03-07 08:25:00,54.0,38.6,29.93,NNE,12,0.0,0.0,56,0.00,,,0.00,Wunderground v.1.15,2013-03-07 15:25:00,
2013-03-07 08:30:00,54.3,38.9,29.93,NNE,12,0.0,0.0,56,0.00,,,0.00,Wunderground v.1.15,2013-03-07 15:30:00,
2013-03-07 08:35:00,55.1,39.7,29.93,NNE,12,0.0,0.0,56,0.00,,,0.00,Wunderground v.1.15,2013-03-07 15:35:00,
2013-03-07 08:40:00,56.2,39.8,29.94,NNW,342,0.0,0.0,54,0.00,,,0.00,Wunderground v.1.15,2013-03-07 15:40:00,
2013-03-07 08:45:00,57.0,40.0,29.93,West,277,0.0,2.0,53,0.00,,,0.00,Wunderground v.1.15,2013-03-07 15:45:00,
2013-03-07 08:50:00,57.8,39.8,29.93,WSW,253,1.0,1.0,51,0.00,,,0.00,Wunderground v.1.15,2013-03-07 15:50:00,
2013-03-07 08:55:00,58.6,40.0,29.93,WSW,251,0.0,3.0,50,0.00,,,0.00,Wunderground v.1.15,2013-03-07 15:55:00,
2013-03-07 09:00:00,60.0,40.8,29.93,SE,139,0.0,1.0,49,0.00,,,0.00,Wunderground v.1.15,2013-03-07 16:00:00,
2013-03-07 09:05:00,59.9,40.1,29.93,WSW,253,0.0,4.0,48,0.00,,,0.00,Wunderground v.1.15,2013-03-07 16:05:00,
2013-03-07 09:10:00,60.3,40.5,29.93,WSW,239,0.0,1.0,48,0.00,,,0.00,Wunderground v.1.15,2013-03-07 16:10:00,
2013-03-07 09:15:00,60.9,40.0,29.93,South,177,0.0,3.0,46,0.00,,,0.00,Wunderground v.1.15,2013-03-07 16:15:00,
2013-03-07 09:20:00,61.8,40.2,29.93,ESE,117,0.0,0.0,45,0.00,,,0.00,Wunderground v.1.15,2013-03-07 16:20:00,
2013-03-07 09:25:00,62.0,40.4,29.93,SSW,194,0.0,4.0,45,0.00,,,0.00,Wunderground v.1.15,2013-03-07 16:25:00,
2013-03-07 09:30:00,62.8,40.5,29.93,South,171,0.0,1.0,44,0.00,,,0.00,Wunderground v.1.15,2013-03-07 16:30:00,
2013-03-07 09:35:00,63.1,40.2,29.93,WSW,257,0.0,2.0,43,0.00,,,0.00,Wunderground v.1.15,2013-03-07 16:35:00,
2013-03-07 09:40:00,63.1,40.2,29.93,WSW,253,2.0,3.0,43,0.00,,,0.00,Wunderground v.1.15,2013-03-07 16:40:00,
2013-03-07 09:45:00,62.4,40.2,29.93,ESE,104,1.0,4.0,44,0.00,,,0.00,Wunderground v.1.15,2013-03-07 16:45:00,
2013-03-07 09:50:00,62.9,40.6,29.93,West,269,1.0,2.0,44,0.00,,,0.00,Wunderground v.1.15,2013-03-07 16:50:00,
2013-03-07 09:55:00,63.1,40.2,29.93,West,260,4.0,5.0,43,0.00,,,0.00,Wunderground v.1.15,2013-03-07 16:55:00,
2013-03-07 10:00:00,62.7,40.5,29.93,WSW,252,2.0,3.0,44,0.00,,,0.00,Wunderground v.1.15,2013-03-07 17:00:00,
2013-03-07 10:06:00,63.5,40.6,29.93,SSE,163,1.0,4.0,43,0.00,,,0.00,Wunderground v.1.15,2013-03-07 17:06:00,
2013-03-07 10:11:00,64.6,41.0,29.93,SW,214,1.0,3.0,42,0.00,,,0.00,Wunderground v.1.15,2013-03-07 17:11:00,
2013-03-07 10:16:00,64.6,41.0,29.93,SW,217,0.0,4.0,42,0.00,,,0.00,Wunderground v.1.15,2013-03-07 17:16:00,
2013-03-07 10:21:00,64.7,41.1,29.93,SW,231,2.0,3.0,42,0.00,,,0.00,Wunderground v.1.15,2013-03-07 17:21:00,
2013-03-07 10:26:00,64.0,40.4,29.93,WSW,246,1.0,7.0,42,0.00,,,0.00,Wunderground v.1.15,2013-03-07 17:26:00,
2013-03-07 10:31:00,64.1,41.1,29.93,SW,226,2.0,3.0,43,0.00,,,0.00,Wunderground v.1.15,2013-03-07 17:31:00,
2013-03-07 10:36:00,64.4,41.4,29.93,SW,232,0.0,7.0,43,0.00,,,0.00,Wunderground v.1.15,2013-03-07 17:36:00,
2013-03-07 10:41:00,65.0,41.3,29.93,West,278,4.0,6.0,42,0.00,,,0.00,Wunderground v.1.15,2013-03-07 17:41:00,
2013-03-07 10:46:00,65.1,42.0,29.93,SSE,155,3.0,6.0,43,0.00,,,0.00,Wunderground v.1.15,2013-03-07 17:46:00,
2013-03-07 10:51:00,66.2,41.2,29.93,ESE,119,3.0,6.0,40,0.00,,,0.00,Wunderground v.1.15,2013-03-07 17:51:00,
2013-03-07 10:56:00,66.3,41.2,29.93,WSW,243,3.0,6.0,40,0.00,,,0.00,Wunderground v.1.15,2013-03-07 17:56:00,
2013-03-07 11:01:00,66.4,42.0,29.93,WSW,248,5.0,8.0,41,0.00,,,0.00,Wunderground v.1.15,2013-03-07 18:01:00,
2013-03-07 11:06:00,66.3,41.2,29.93,West,271,7.0,9.0,40,0.00,,,0.00,Wunderground v.1.15,2013-03-07 18:06:00,
2013-03-07 11:11:00,66.7,42.2,29.93,SE,130,0.0,5.0,41,0.00,,,0.00,Wunderground v.1.15,2013-03-07 18:11:00,
2013-03-07 11:16:00,67.3,41.5,29.93,WSW,256,2.0,9.0,39,0.00,,,0.00,Wunderground v.1.15,2013-03-07 18:16:00,
2013-03-07 11:22:00,68.0,40.7,29.93,SSW,201,3.0,6.0,37,0.00,,,0.00,Wunderground v.1.15,2013-03-07 18:22:00,
2013-03-07 11:27:00,68.5,41.9,29.92,SW,217,6.0,7.0,38,0.00,,,0.00,Wunderground v.1.15,2013-03-07 18:27:00,
2013-03-07 11:32:00,68.4,41.1,29.92,SW,226,3.0,8.0,37,0.00,,,0.00,Wunderground v.1.15,2013-03-07 18:32:00,
2013-03-07 11:37:00,69.1,38.8,29.92,WSW,257,3.0,10.0,33,0.00,,,0.00,Wunderground v.1.15,2013-03-07 18:37:00,
2013-03-07 11:42:00,69.8,39.4,29.92,SE,136,3.0,3.0,33,0.00,,,0.00,Wunderground v.1.15,2013-03-07 18:42:00,
2013-03-07 11:47:00,69.5,38.3,29.92,WSW,248,5.0,11.0,32,0.00,,,0.00,Wunderground v.1.15,2013-03-07 18:47:00,
2013-03-07 11:52:00,69.9,40.2,29.92,South,190,5.0,7.0,34,0.00,,,0.00,Wunderground v.1.15,2013-03-07 18:52:00,
2013-03-07 11:57:00,69.8,39.4,29.92,WSW,253,2.0,11.0,33,0.00,,,0.00,Wunderground v.1.15,2013-03-07 18:57:00,
2013-03-07 12:02:00,70.0,39.6,29.92,SSE,158,4.0,8.0,33,0.00,,,0.00,Wunderground v.1.15,2013-03-07 19:02:00,
2013-03-07 12:07:00,70.0,38.8,29.92,WSW,256,7.0,10.0,32,0.00,,,0.00,Wunderground v.1.15,2013-03-07 19:07:00,
2013-03-07 12:12:00,69.5,37.5,29.92,SW,226,4.0,11.0,31,0.00,,,0.00,Wunderground v.1.15,2013-03-07 19:12:00,
2013-03-07 12:17:00,69.0,38.7,29.92,WNW,283,11.0,15.0,33,0.00,,,0.00,Wunderground v.1.15,2013-03-07 19:17:00,
2013-03-07 12:22:00,69.6,37.6,29.92,SW,232,5.0,12.0,31,0.00,,,0.00,Wunderground v.1.15,2013-03-07 19:22:00,
2013-03-07 12:27:00,69.6,39.2,29.92,West,268,7.0,13.0,33,0.00,,,0.00,Wunderground v.1.15,2013-03-07 19:27:00,
2013-03-07 12:32:00,69.3,39.7,29.91,WSW,250,8.0,10.0,34,0.00,,,0.00,Wunderground v.1.15,2013-03-07 19:32:00,
2013-03-07 12:37:00,69.6,38.4,29.91,SW,228,10.0,12.0,32,0.00,,,0.00,Wunderground v.1.15,2013-03-07 19:37:00,
2013-03-07 12:42:00,70.6,39.3,29.91,WSW,240,3.0,11.0,32,0.00,,,0.00,Wunderground v.1.15,2013-03-07 19:42:00,
2013-03-07 12:48:00,71.2,38.2,29.91,West,280,5.0,11.0,30,0.00,,,0.00,Wunderground v.1.15,2013-03-07 19:48:00,
2013-03-07 12:53:00,72.1,39.8,29.90,SW,229,5.0,6.0,31,0.00,,,0.00,Wunderground v.1.15,2013-03-07 19:53:00,
2013-03-07 12:58:00,71.9,37.9,29.90,WSW,249,2.0,13.0,29,0.00,,,0.00,Wunderground v.1.15,2013-03-07 19:58:00,
2013-03-07 13:03:00,72.0,37.1,29.90,East,96,2.0,14.0,28,0.00,,,0.00,Wunderground v.1.15,2013-03-07 20:03:00,
2013-03-07 13:08:00,72.7,37.7,29.89,WSW,255,9.0,14.0,28,0.00,,,0.00,Wunderground v.1.15,2013-03-07 20:08:00,
2013-03-07 13:13:00,72.2,38.2,29.89,South,176,4.0,13.0,29,0.00,,,0.00,Wunderground v.1.15,2013-03-07 20:13:00,
2013-03-07 13:18:00,73.1,38.0,29.88,WSW,252,9.0,13.0,28,0.00,,,0.00,Wunderground v.1.15,2013-03-07 20:18:00,
2013-03-07 13:23:00,72.3,38.2,29.88,WSW,239,13.0,14.0,29,0.00,,,0.00,Wunderground v.1.15,2013-03-07 20:23:00,
2013-03-07 13:28:00,71.9,38.8,29.88,WSW,257,9.0,14.0,30,0.00,,,0.00,Wunderground v.1.15,2013-03-07 20:28:00,
2013-03-07 13:33:00,71.9,38.8,29.87,West,280,5.0,14.0,30,0.00,,,0.00,Wunderground v.1.15,2013-03-07 20:33:00,
2013-03-07 13:38:00,73.0,38.0,29.87,ESE,122,3.0,14.0,28,0.00,,,0.00,Wunderground v.1.15,2013-03-07 20:38:00,
2013-03-07 13:43:00,74.0,38.8,29.87,West,281,3.0,10.0,28,0.00,,,0.00,Wunderground v.1.15,2013-03-07 20:43:00,
2013-03-07 13:48:00,74.7,38.5,29.87,ESE,110,2.0,11.0,27,0.00,,,0.00,Wunderground v.1.15,2013-03-07 20:48:00,
2013-03-07 13:53:00,74.9,38.7,29.86,SW,224,5.0,8.0,27,0.00,,,0.00,Wunderground v.1.15,2013-03-07 20:53:00,
2013-03-07 13:58:00,75.3,38.0,29.86,WSW,248,3.0,10.0,26,0.00,,,0.00,Wunderground v.1.15,2013-03-07 20:58:00,
2013-03-07 14:03:00,74.8,37.6,29.85,WSW,255,10.0,15.0,26,0.00,,,0.00,Wunderground v.1.15,2013-03-07 21:03:00,
2013-03-07 14:08:00,74.3,38.1,29.85,SW,224,8.0,17.0,27,0.00,,,0.00,Wunderground v.1.15,2013-03-07 21:08:00,
2013-03-07 14:13:00,74.1,37.0,29.85,WSW,242,12.0,17.0,26,0.00,,,0.00,Wunderground v.1.15,2013-03-07 21:13:00,
2013-03-07 14:18:00,73.5,38.4,29.85,WSW,255,12.0,17.0,28,0.00,,,0.00,Wunderground v.1.15,2013-03-07 21:18:00,
2013-03-07 14:23:00,73.1,36.2,29.85,West,266,11.0,15.0,26,0.00,,,0.00,Wunderground v.1.15,2013-03-07 21:23:00,
2013-03-07 14:28:00,73.0,37.0,29.84,West,264,12.0,15.0,27,0.00,,,0.00,Wunderground v.1.15,2013-03-07 21:28:00,
2013-03-07 14:33:00,73.3,37.3,29.84,South,184,3.0,15.0,27,0.00,,,0.00,Wunderground v.1.15,2013-03-07 21:33:00,
2013-03-07 14:39:00,73.7,35.7,29.84,WSW,239,8.0,17.0,25,0.00,,,0.00,Wunderground v.1.15,2013-03-07 21:39:00,
2013-03-07 14:44:00,73.4,36.4,29.84,SW,219,9.0,14.0,26,0.00,,,0.00,Wunderground v.1.15,2013-03-07 21:44:00,
2013-03-07 14:49:00,73.6,37.5,29.84,SW,232,1.0,14.0,27,0.00,,,0.00,Wunderground v.1.15,2013-03-07 21:49:00,
2013-03-07 14:53:00,74.2,35.1,29.84,WSW,250,10.0,17.0,24,0.00,,,0.00,Wunderground v.1.15,2013-03-07 21:53:00,
2013-03-07 14:58:00,73.8,35.8,29.84,WSW,240,5.0,17.0,25,0.00,,,0.00,Wunderground v.1.15,2013-03-07 21:58:00,
2013-03-07 15:03:00,74.1,37.0,29.84,WSW,239,5.0,9.0,26,0.00,,,0.00,Wunderground v.1.15,2013-03-07 22:03:00,
2013-03-07 15:09:00,74.0,35.9,29.84,WSW,239,12.0,17.0,25,0.00,,,0.00,Wunderground v.1.15,2013-03-07 22:09:00,
2013-03-07 15:14:00,73.9,35.8,29.84,SW,228,12.0,15.0,25,0.00,,,0.00,Wunderground v.1.15,2013-03-07 22:14:00,
2013-03-07 15:19:00,73.7,35.7,29.84,WSW,241,16.0,16.0,25,0.00,,,0.00,Wunderground v.1.15,2013-03-07 22:19:00,
2013-03-07 15:24:00,73.3,36.3,29.84,WSW,249,7.0,16.0,26,0.00,,,0.00,Wunderground v.1.15,2013-03-07 22:24:00,
2013-03-07 15:29:00,73.5,36.5,29.84,SW,229,9.0,17.0,26,0.00,,,0.00,Wunderground v.1.15,2013-03-07 22:29:00,
2013-03-07 15:34:00,73.7,36.7,29.84,WSW,239,11.0,17.0,26,0.00,,,0.00,Wunderground v.1.15,2013-03-07 22:34:00,
2013-03-07 15:39:00,73.1,36.2,29.83,SW,232,14.0,18.0,26,0.00,,,0.00,Wunderground v.1.15,2013-03-07 22:39:00,
2013-03-07 15:44:00,72.9,36.9,29.83,WSW,252,6.0,18.0,27,0.00,,,0.00,Wunderground v.1.15,2013-03-07 22:44:00,
2013-03-07 15:49:00,72.8,36.9,29.83,SW,229,11.0,18.0,27,0.00,,,0.00,Wunderground v.1.15,2013-03-07 22:49:00,
2013-03-07 15:54:00,72.6,37.6,29.83,SW,231,7.0,13.0,28,0.00,,,0.00,Wunderground v.1.15,2013-03-07 22:54:00,
2013-03-07 15:59:00,72.5,37.5,29.83,SSE,153,6.0,14.0,28,0.00,,,0.00,Wunderground v.1.15,2013-03-07 22:59:00,
2013-03-07 16:04:00,72.4,36.5,29.83,SSW,207,8.0,16.0,27,0.00,,,0.00,Wunderground v.1.15,2013-03-07 23:04:00,
2013-03-07 16:09:00,72.4,37.4,29.83,SW,214,12.0,16.0,28,0.00,,,0.00,Wunderground v.1.15,2013-03-07 23:09:00,
2013-03-07 16:14:00,72.2,38.2,29.83,WSW,256,7.0,15.0,29,0.00,,,0.00,Wunderground v.1.15,2013-03-07 23:14:00,
2013-03-07 16:19:00,72.0,38.0,29.83,WSW,245,12.0,15.0,29,0.00,,,0.00,Wunderground v.1.15,2013-03-07 23:19:00,
2013-03-07 16:24:00,71.6,38.5,29.83,WSW,245,12.0,13.0,30,0.00,,,0.00,Wunderground v.1.15,2013-03-07 23:24:00,
2013-03-07 16:29:00,71.5,40.1,29.83,WSW,240,5.0,13.0,32,0.00,,,0.00,Wunderground v.1.15,2013-03-07 23:29:00,
2013-03-07 16:34:00,71.5,39.3,29.83,West,266,5.0,11.0,31,0.00,,,0.00,Wunderground v.1.15,2013-03-07 23:34:00,
2013-03-07 16:39:00,71.5,39.3,29.83,SW,226,12.0,12.0,31,0.00,,,0.00,Wunderground v.1.15,2013-03-07 23:39:00,
2013-03-07 16:44:00,71.3,39.1,29.83,WSW,238,7.0,11.0,31,0.00,,,0.00,Wunderground v.1.15,2013-03-07 23:44:00,
2013-03-07 16:49:00,71.2,40.6,29.83,SW,228,9.0,11.0,33,0.00,,,0.00,Wunderground v.1.15,2013-03-07 23:49:00,
2013-03-07 16:54:00,71.1,40.5,29.83,WSW,242,8.0,12.0,33,0.00,,,0.00,Wunderground v.1.15,2013-03-07 23:54:00,
2013-03-07 16:59:00,71.0,41.2,29.83,WSW,240,8.0,12.0,34,0.00,,,0.00,Wunderground v.1.15,2013-03-07 23:59:00,
2013-03-07 17:04:00,70.9,41.1,29.83,WSW,245,7.0,11.0,34,0.00,,,0.00,Wunderground v.1.15,2013-03-08 00:04:00,
2013-03-07 17:09:00,70.5,41.5,29.83,SW,231,8.0,15.0,35,0.00,,,0.00,Wunderground v.1.15,2013-03-08 00:09:00,
2013-03-07 17:14:00,70.1,42.6,29.83,West,264,5.0,14.0,37,0.00,,,0.00,Wunderground v.1.15,2013-03-08 00:14:00,
2013-03-07 17:19:00,69.7,42.9,29.83,WSW,255,9.0,14.0,38,0.00,,,0.00,Wunderground v.1.15,2013-03-08 00:19:00,
2013-03-07 17:24:00,69.4,43.4,29.83,SW,231,5.0,12.0,39,0.00,,,0.00,Wunderground v.1.15,2013-03-08 00:24:00,
2013-03-07 17:29:00,69.0,43.0,29.83,WSW,252,6.0,14.0,39,0.00,,,0.00,Wunderground v.1.15,2013-03-08 00:29:00,
2013-03-07 17:34:00,68.6,43.3,29.83,West,267,8.0,13.0,40,0.00,,,0.00,Wunderground v.1.15,2013-03-08 00:34:00,
2013-03-07 17:39:00,68.3,43.0,29.83,West,273,8.0,13.0,40,0.00,,,0.00,Wunderground v.1.15,2013-03-08 00:39:00,
2013-03-07 17:44:00,67.9,42.7,29.83,WSW,256,5.0,12.0,40,0.00,,,0.00,Wunderground v.1.15,2013-03-08 00:44:00,
2013-03-07 17:49:00,67.5,43.0,29.83,WSW,243,4.0,13.0,41,0.00,,,0.00,Wunderground v.1.15,2013-03-08 00:49:00,
2013-03-07 17:54:00,67.2,42.7,29.84,West,266,8.0,11.0,41,0.00,,,0.00,Wunderground v.1.15,2013-03-08 00:54:00,
2013-03-07 17:59:00,67.1,42.0,29.83,West,266,5.0,11.0,40,0.00,,,0.00,Wunderground v.1.15,2013-03-08 00:59:00,
2013-03-07 18:04:00,66.8,41.7,29.83,West,271,4.0,10.0,40,0.00,,,0.00,Wunderground v.1.15,2013-03-08 01:04:00,
2013-03-07 18:09:00,66.5,42.1,29.83,WSW,256,6.0,10.0,41,0.00,,,0.00,Wunderground v.1.15,2013-03-08 01:09:00,
2013-03-07 18:14:00,66.3,41.9,29.83,WSW,242,6.0,9.0,41,0.00,,,0.00,Wunderground v.1.15,2013-03-08 01:14:00,
2013-03-07 18:19:00,66.1,41.7,29.83,WSW,238,7.0,9.0,41,0.00,,,0.00,Wunderground v.1.15,2013-03-08 01:19:00,
2013-03-07 18:24:00,66.0,41.0,29.84,WSW,242,9.0,10.0,40,0.00,,,0.00,Wunderground v.1.15,2013-03-08 01:24:00,
2013-03-07 18:29:00,65.9,40.9,29.84,WSW,242,8.0,12.0,40,0.00,,,0.00,Wunderground v.1.15,2013-03-08 01:29:00,
2013-03-07 18:34:00,65.8,40.8,29.84,WSW,250,7.0,10.0,40,0.00,,,0.00,Wunderground v.1.15,2013-03-08 01:34:00,
2013-03-07 18:39:00,65.6,40.6,29.84,SW,236,5.0,10.0,40,0.00,,,0.00,Wunderground v.1.15,2013-03-08 01:39:00,
2013-03-07 18:44:00,65.4,41.1,29.84,SW,214,1.0,8.0,41,0.00,,,0.00,Wunderground v.1.15,2013-03-08 01:44:00,
2013-03-07 18:49:00,65.2,41.5,29.84,WSW,239,5.0,9.0,42,0.00,,,0.00,Wunderground v.1.15,2013-03-08 01:49:00,
2013-03-07 18:54:00,64.9,41.9,29.84,SW,236,4.0,8.0,43,0.00,,,0.00,Wunderground v.1.15,2013-03-08 01:54:00,
2013-03-07 18:59:00,64.7,41.7,29.84,SW,225,5.0,8.0,43,0.00,,,0.00,Wunderground v.1.15,2013-03-08 01:59:00,
2013-03-07 19:04:00,64.6,41.6,29.84,WSW,257,5.0,9.0,43,0.00,,,0.00,Wunderground v.1.15,2013-03-08 02:04:00,
2013-03-07 19:09:00,64.5,40.9,29.84,SW,215,5.0,11.0,42,0.00,,,0.00,Wunderground v.1.15,2013-03-08 02:09:00,
2013-03-07 19:14:00,64.5,41.5,29.85,SW,236,5.0,9.0,43,0.00,,,0.00,Wunderground v.1.15,2013-03-08 02:14:00,
2013-03-07 19:19:00,64.4,41.4,29.85,SW,226,5.0,9.0,43,0.00,,,0.00,Wunderground v.1.15,2013-03-08 02:19:00,
2013-03-07 19:24:00,64.4,40.8,29.85,SW,214,8.0,8.0,42,0.00,,,0.00,Wunderground v.1.15,2013-03-08 02:24:00,
2013-03-07 19:29:00,64.3,40.7,29.85,WSW,240,4.0,10.0,42,0.00,,,0.00,Wunderground v.1.15,2013-03-08 02:29:00,
2013-03-07 19:34:00,64.2,40.6,29.85,ESE,122,1.0,7.0,42,0.00,,,0.00,Wunderground v.1.15,2013-03-08 02:34:00,
2013-03-07 19:39:00,64.0,40.4,29.85,South,183,1.0,7.0,42,0.00,,,0.00,Wunderground v.1.15,2013-03-08 02:39:00,
2013-03-07 19:44:00,63.8,40.3,29.85,SSE,153,0.0,7.0,42,0.00,,,0.00,Wunderground v.1.15,2013-03-08 02:44:00,
2013-03-07 19:49:00,63.7,40.2,29.86,SSW,205,0.0,7.0,42,0.00,,,0.00,Wunderground v.1.15,2013-03-08 02:49:00,
2013-03-07 19:55:00,63.5,40.6,29.86,ESE,116,1.0,2.0,43,0.00,,,0.00,Wunderground v.1.15,2013-03-08 02:55:00,
2013-03-07 20:00:00,63.4,40.5,29.86,ESE,110,1.0,1.0,43,0.00,,,0.00,Wunderground v.1.15,2013-03-08 03:00:00,
2013-03-07 20:05:00,63.3,40.4,29.86,ESE,117,1.0,1.0,43,0.00,,,0.00,Wunderground v.1.15,2013-03-08 03:05:00,
2013-03-07 20:10:00,63.2,40.3,29.86,ESE,105,1.0,1.0,43,0.00,,,0.00,Wunderground v.1.15,2013-03-08 03:10:00,
2013-03-07 20:15:00,63.1,40.2,29.86,SE,130,1.0,3.0,43,0.00,,,0.00,Wunderground v.1.15,2013-03-08 03:15:00,
2013-03-07 20:20:00,63.0,40.1,29.86,ESE,111,1.0,1.0,43,0.00,,,0.00,Wunderground v.1.15,2013-03-08 03:20:00,
2013-03-07 20:25:00,62.9,39.4,29.86,South,177,2.0,6.0,42,0.00,,,0.00,Wunderground v.1.15,2013-03-08 03:25:00,
2013-03-07 20:30:00,62.9,39.4,29.86,SSE,149,1.0,6.0,42,0.00,,,0.00,Wunderground v.1.15,2013-03-08 03:30:00,
2013-03-07 20:35:00,62.7,39.3,29.86,ESE,115,0.0,2.0,42,0.00,,,0.00,Wunderground v.1.15,2013-03-08 03:35:00,
2013-03-07 20:40:00,62.7,39.9,29.86,ESE,121,0.0,2.0,43,0.00,,,0.00,Wunderground v.1.15,2013-03-08 03:40:00,
2013-03-07 20:45:00,62.7,39.9,29.86,SE,133,1.0,3.0,43,0.00,,,0.00,Wunderground v.1.15,2013-03-08 03:45:00,
2013-03-07 20:50:00,62.5,39.7,29.86,ESE,121,0.0,0.0,43,0.00,,,0.00,Wunderground v.1.15,2013-03-08 03:50:00,
2013-03-07 20:55:00,62.3,39.5,29.86,South,190,0.0,1.0,43,0.00,,,0.00,Wunderground v.1.15,2013-03-08 03:55:00,
2013-03-07 21:00:00,62.0,39.2,29.85,SSW,203,1.0,1.0,43,0.00,,,0.00,Wunderground v.1.15,2013-03-08 04:00:00,
2013-03-07 21:05:00,61.9,39.7,29.85,SSW,197,2.0,5.0,44,0.00,,,0.00,Wunderground v.1.15,2013-03-08 04:05:00,
2013-03-07 21:10:00,61.9,39.1,29.85,SE,133,2.0,2.0,43,0.00,,,0.00,Wunderground v.1.15,2013-03-08 04:10:00,
2013-03-07 21:15:00,62.0,38.6,29.85,South,181,1.0,6.0,42,0.00,,,0.00,Wunderground v.1.15,2013-03-08 04:15:00,
2013-03-07 21:20:00,62.2,38.2,29.85,South,188,5.0,5.0,41,0.00,,,0.00,Wunderground v.1.15,2013-03-08 04:20:00,
2013-03-07 21:25:00,62.4,37.7,29.85,SE,138,2.0,9.0,40,0.00,,,0.00,Wunderground v.1.15,2013-03-08 04:25:00,
2013-03-07 21:30:00,62.6,37.3,29.85,SE,143,2.0,11.0,39,0.00,,,0.00,Wunderground v.1.15,2013-03-08 04:30:00,
2013-03-07 21:35:00,62.7,37.4,29.85,WSW,242,0.0,11.0,39,0.00,,,0.00,Wunderground v.1.15,2013-03-08 04:35:00,
2013-03-07 21:40:00,62.7,38.0,29.85,SSE,158,1.0,7.0,40,0.00,,,0.00,Wunderground v.1.15,2013-03-08 04:40:00,
2013-03-07 21:45:00,62.6,37.9,29.85,SSE,158,3.0,7.0,40,0.00,,,0.00,Wunderground v.1.15,2013-03-08 04:45:00,
2013-03-07 21:50:00,62.5,37.8,29.85,SSW,203,1.0,2.0,40,0.00,,,0.00,Wunderground v.1.15,2013-03-08 04:50:00,
2013-03-07 21:56:00,62.4,37.7,29.84,SE,127,1.0,7.0,40,0.00,,,0.00,Wunderground v.1.15,2013-03-08 04:56:00,
2013-03-07 22:00:00,62.4,37.7,29.85,SSW,200,1.0,7.0,40,0.00,,,0.00,Wunderground v.1.15,2013-03-08 05:00:00,
2013-03-07 22:01:00,62.4,37.7,29.85,South,188,7.0,8.0,40,0.00,,,0.00,Wunderground v.1.15,2013-03-08 05:01:00,
2013-03-07 22:02:00,62.3,37.7,29.85,SSE,167,5.0,8.0,40,0.00,,,0.00,Wunderground v.1.15,2013-03-08 05:02:00,
2013-03-07 22:07:00,62.1,37.5,29.85,SW,228,0.0,8.0,40,0.00,,,0.00,Wunderground v.1.15,2013-03-08 05:07:00,
2013-03-07 22:12:00,61.9,37.3,29.85,South,169,1.0,8.0,40,0.00,,,0.00,Wunderground v.1.15,2013-03-08 05:12:00,
2013-03-07 22:17:00,61.6,37.7,29.85,SW,235,3.0,10.0,41,0.00,,,0.00,Wunderground v.1.15,2013-03-08 05:17:00,
2013-03-07 22:22:00,61.2,37.9,29.85,SW,236,5.0,8.0,42,0.00,,,0.00,Wunderground v.1.15,2013-03-08 05:22:00,
2013-03-07 22:27:00,60.9,38.2,29.84,SSW,210,0.0,9.0,43,0.00,,,0.00,Wunderground v.1.15,2013-03-08 05:27:00,
2013-03-07 22:32:00,60.6,38.0,29.85,SSE,149,1.0,4.0,43,0.00,,,0.00,Wunderground v.1.15,2013-03-08 05:32:00,
2013-03-07 22:37:00,60.5,37.9,29.85,SSW,210,0.0,5.0,43,0.00,,,0.00,Wunderground v.1.15,2013-03-08 05:37:00,
2013-03-07 22:42:00,60.4,37.8,29.85,ESE,120,0.0,2.0,43,0.00,,,0.00,Wunderground v.1.15,2013-03-08 05:42:00,
2013-03-07 22:47:00,60.3,37.7,29.85,SE,124,2.0,4.0,43,0.00,,,0.00,Wunderground v.1.15,2013-03-08 05:47:00,
2013-03-07 22:52:00,60.3,37.7,29.85,NE,54,0.0,6.0,43,0.00,,,0.00,Wunderground v.1.15,2013-03-08 05:52:00,
2013-03-07 22:57:00,60.3,37.1,29.84,SW,221,0.0,7.0,42,0.00,,,0.00,Wunderground v.1.15,2013-03-08 05:57:00,
2013-03-07 23:02:00,60.3,37.1,29.84,SW,215,1.0,6.0,42,0.00,,,0.00,Wunderground v.1.15,2013-03-08 06:02:00,
2013-03-07 23:07:00,60.2,37.0,29.84,ESE,105,0.0,6.0,42,0.00,,,0.00,Wunderground v.1.15,2013-03-08 06:07:00,
2013-03-07 23:12:00,60.2,37.0,29.84,SE,131,1.0,5.0,42,0.00,,,0.00,Wunderground v.1.15,2013-03-08 06:12:00,
2013-03-07 23:17:00,60.2,37.0,29.85,South,179,1.0,5.0,42,0.00,,,0.00,Wunderground v.1.15,2013-03-08 06:17:00,
2013-03-07 23:22:00,60.1,36.9,29.84,SSW,212,1.0,3.0,42,0.00,,,0.00,Wunderground v.1.15,2013-03-08 06:22:00,
2013-03-07 23:27:00,60.1,36.9,29.84,SSW,195,0.0,5.0,42,0.00,,,0.00,Wunderground v.1.15,2013-03-08 06:27:00,
2013-03-07 23:32:00,60.0,36.8,29.84,South,181,1.0,4.0,42,0.00,,,0.00,Wunderground v.1.15,2013-03-08 06:32:00,
2013-03-07 23:37:00,60.1,36.9,29.84,SE,137,3.0,6.0,42,0.00,,,0.00,Wunderground v.1.15,2013-03-08 06:37:00,
2013-03-07 23:42:00,60.0,36.8,29.84,SW,224,3.0,5.0,42,0.00,,,0.00,Wunderground v.1.15,2013-03-08 06:42:00,
2013-03-07 23:47:00,60.0,36.8,29.84,SSW,197,0.0,7.0,42,0.00,,,0.00,Wunderground v.1.15,2013-03-08 06:47:00,
2013-03-07 23:52:00,59.9,36.7,29.84,SW,214,1.0,4.0,42,0.00,,,0.00,Wunderground v.1.15,2013-03-08 06:52:00,
2013-03-07 23:57:00,59.8,36.6,29.83,South,181,2.0,5.0,42,0.00,,,0.00,Wunderground v.1.15,2013-03-08 06:57:00,